#timestamp,LO_Frequency,Hit,StdDev 
1513404015.5,286046997.4,N
1513404035.3,286046997.0,N
1513404055.2,286046998.8,N
1513404075.0,286047002.3,N
1513404075.9,286047002.3,N
1513404095.8,286047001.5,N
1513404115.6,286047000.7,N
1513404135.4,286046996.7,N
1513404155.3,286046998.2,N
1513404175.1,286047001.0,N
1513404195.9,286046998.3,N
1513404215.7,286046995.4,N
1513404235.5,286046995.7,N
1513404255.4,286046996.7,N
1513404275.2,286046997.1,N
1513404295.0,286047000.9,N
1513404295.9,286047000.9,N
1513404315.8,286047001.4,N
1513404335.6,286047001.7,N
1513404355.5,286047003.5,N
1513404375.3,286047002.9,N
1513404395.1,286047003.6,N
1513404415.9,286047003.9,N
1513404435.7,286047001.8,N
1513404455.5,286047002.2,N
1513404475.4,286047004.4,N
1513404495.2,286047004.0,N
1513404515.1,286047003.8,N
1513404516.0,286047003.8,N
1513404535.8,286047003.2,N
1513404555.6,286047003.1,N
1513404575.5,286047001.7,N
1513404595.3,286047003.0,N
1513404615.2,286047004.5,N
1513404635.9,286047007.0,N
1513404655.7,286047003.1,N
1513404675.6,286047003.6,N
1513404695.4,286047001.5,N
1513404715.2,286047003.0,N
1513404735.1,286047001.3,N
1513404736.0,286047001.3,N
1513404755.8,286047000.1,N
1513404775.7,286047001.2,N
1513404795.5,286046998.8,N
1513404815.3,286047000.4,N
1513404835.2,286046998.5,N
1513404855.0,286047000.1,N
1513404855.9,286047000.1,N
1513404875.8,286047002.5,N
1513404895.6,286046999.8,N
1513404915.4,286047000.6,N
1513404935.3,286046998.6,N
1513404955.1,286047002.1,N
1513404975.8,286047002.8,N
1513404995.7,286046999.3,N
1513405015.5,286046995.5,N
1513405035.4,286046993.4,N
1513405055.2,286046995.0,N
1513405075.0,286047001.1,N
1513405075.9,286047001.1,N
1513405095.8,286047004.0,N
1513405115.6,286047003.4,N
1513405135.5,286047003.7,N
1513405155.3,286047003.4,N
1513405175.1,286047001.5,N
1513405195.9,286047000.1,N
1513405215.7,286047001.3,N
1513405235.5,286047001.4,N
1513405255.4,286047003.5,N
1513405275.2,286047001.9,N
1513405295.1,286047002.8,N
1513405296.0,286047002.8,N
1513405315.8,286047002.7,N
1513405335.6,286047000.0,N
1513405355.5,286046999.5,N
1513405375.3,286046998.4,N
1513405395.2,286047000.3,N
1513405415.9,286046999.7,N
1513405435.7,286047000.1,N
1513405455.6,286047001.1,N
1513405475.4,286047001.0,N
1513405495.2,286047001.0,N
1513405515.1,286047000.5,N
1513405516.0,286047000.5,N
1513405535.8,286047000.3,N
1513405555.7,286047002.6,N
1513405575.5,286046998.5,N
1513405595.3,286046999.9,N
1513405615.2,286047000.4,N
1513405635.0,286047002.0,N
1513405635.9,286047002.0,N
1513405655.8,286047004.4,Y
1513405675.6,286047001.3,P
1513405695.4,286047003.6,P
1513405715.3,286046998.3,N
1513405735.1,286047000.5,N
1513405755.9,286047004.1,N
1513405775.7,286047003.7,N
1513405795.5,286047002.4,N
1513405815.4,286047003.8,N
1513405835.2,286047005.7,Y
1513405855.1,286047005.5,P
1513405856.0,286047005.5,P
1513405875.8,286047005.0,P
1513405895.6,286047004.1,N
1513405915.5,286047001.9,N
1513405935.3,286047000.0,N
1513405955.1,286047000.4,N
1513405975.9,286046998.6,N
1513405995.7,286046997.9,N
1513406015.6,286046998.3,N
1513406035.4,286047002.6,N
1513406055.2,286047002.8,N
1513406075.1,286047001.9,N
1513406076.0,286047001.9,N
1513406095.8,286047003.5,N
1513406115.7,286047002.3,N
1513406135.5,286047002.5,N
1513406155.3,286047001.9,N
1513406175.2,286047002.4,N
1513406195.9,286046999.5,N
1513406215.7,286046998.7,N
1513406235.6,286046999.3,N
1513406255.4,286046999.3,N
1513406275.3,286046999.0,N
1513406295.1,286047000.1,N
1513406296.0,286047000.1,N
1513406315.8,286046999.8,N
1513406335.7,286046998.1,N
1513406355.5,286047000.5,N
1513406375.3,286047000.0,N
1513406395.2,286047002.8,N
1513406415.0,286047001.0,N
1513406415.9,286047001.0,N
1513406435.8,286047001.1,N
1513406455.6,286046999.7,N
1513406475.4,286046999.7,N
1513406495.3,286047004.2,N
1513406515.1,286047001.7,N
1513406535.9,286047002.3,N
1513406555.7,286047002.3,N
1513406575.5,286047000.8,N
1513406595.4,286047001.0,N
1513406615.2,286047001.0,N
1513406635.0,286047000.2,N
1513406635.9,286047000.2,N
1513406655.8,286047004.0,N
1513406675.6,286047001.8,N
1513406695.5,286047002.8,N
1513406715.3,286047002.3,N
1513406735.1,286047003.9,N
1513406755.9,286047004.0,N
1513406775.7,286047001.8,N
1513406795.6,286047001.4,N
1513406815.4,286047000.0,N
1513406835.2,286046998.9,N
1513406855.1,286047000.7,N
1513406856.0,286047000.7,N
1513406875.8,286047002.6,N
1513406895.6,286047000.3,N
1513406915.5,286047000.9,N
1513406935.3,286047002.1,N
1513406955.2,286047004.2,Y
1513406975.0,286046999.5,P
1513406975.9,286046999.5,N
1513406995.7,286046995.6,P
1513407015.6,286046997.7,N
1513407035.4,286047001.2,N
1513407055.3,286047000.4,N
1513407075.1,286047001.6,N
1513407095.8,286047001.7,N
1513407115.7,286047002.7,N
1513407135.5,286046999.4,N
1513407155.4,286046996.9,N
1513407175.2,286047000.9,N
1513407195.0,286046998.6,N
1513407195.9,286046998.6,N
1513407215.8,286046998.6,N
1513407235.6,286046997.8,N
1513407255.4,286046996.6,N
1513407275.3,286046998.4,N
1513407295.1,286046997.2,N
1513407315.9,286046995.0,N
1513407335.7,286046994.0,N
1513407355.5,286046994.5,N
1513407375.4,286046994.2,N
1513407395.2,286046993.2,N
1513407415.1,286046992.6,N
1513407416.0,286046992.6,N
1513407435.8,286046994.6,N
1513407455.6,286046992.3,N
1513407475.5,286046994.6,N
1513407495.3,286046994.0,N
1513407515.1,286046996.2,N
1513407535.9,286046997.5,N
1513407555.7,286046997.8,N
1513407575.6,286046995.5,N
1513407595.4,286046995.9,N
